This demonstration page uses our WeatherBlox Daily Observations layout. Learn more.

39.29038, -76.61219

Hourly Observations for April 16, 2018

Temp ( °F °C ) Dew Point ( °F °C ) Humidity (%) Winds ( mph kmh ) Pressure ( in mb ) Visibility ( mi km ) Precip ( " mm )
12:54 am 00:54 undefined 47 8.3 45 7.2 93 93 undefined N/A 29.77 1008 N/A 0.04 1.016
1:54 am 01:54 undefined 48 8.9 47 8.3 96 96 undefined N/A 29.7 1006 N/A 0.22 5.588
2:54 am 02:54 undefined 50 10 49 9.4 96 96 undefined N/A 29.62 1003 N/A 0.15 3.81
3:54 am 03:54 undefined 54 12.2 53 11.7 97 97 undefined N/A 29.54 1001 N/A 0.27 6.858
4:54 am 04:54 undefined 55 12.8 54 12.2 96 96 undefined N/A 29.58 1002 N/A 1.01 25.654
5:54 am 05:54 undefined 57 13.9 56 13.3 96 96 undefined N/A 29.53 1000 N/A 0.1 2.54
6:54 am 06:54 undefined 58 14.4 58 14.4 100 100 undefined N/A 29.49 999 N/A 0.09 2.286
7:54 am 07:54 undefined 57 13.9 57 13.9 100 100 undefined N/A 29.49 999 N/A 0.01 0.254
8:54 am 08:54 undefined 58 14.4 58 14.4 100 100 undefined N/A 29.47 998 N/A 0 0
9:54 am 09:54 undefined 60 15.6 59 15 96 96 undefined N/A 29.44 997 N/A 0 0
10:54 am 10:54 undefined 53 11.7 50 10 89 89 undefined N/A 29.44 997 N/A 0 0
11:54 am 11:54 undefined 54 12.2 46 7.8 75 75 undefined N/A 29.47 998 N/A 0 0
12:54 pm 12:54 undefined 56 13.3 45 7.2 67 67 undefined N/A 29.48 998 N/A 0 0
1:54 pm 13:54 undefined 54 12.2 42 5.6 64 64 undefined N/A 29.52 1000 N/A 0 0
2:54 pm 14:54 undefined 51 10.6 41 5 69 69 undefined N/A 29.54 1000 N/A 0.01 0.254
3:54 pm 15:54 undefined 53 11.7 40 4.4 61 61 undefined N/A 29.6 1002 N/A 0 0
4:54 pm 16:54 undefined 54 12.2 36 2.2 51 51 undefined N/A 29.61 1003 N/A 0 0
5:54 pm 17:54 undefined 53 11.7 36 2.2 52 52 undefined N/A 29.62 1003 N/A 0 0
6:54 pm 18:54 undefined 52 11.1 31 -0.6 45 45 undefined N/A 29.63 1004 N/A 0 0
7:54 pm 19:54 undefined 51 10.6 32 0 48 48 undefined N/A 29.66 1005 N/A 0 0
8:54 pm 20:54 undefined 50 10 31 -0.6 48 48 undefined N/A 29.67 1005 N/A 0 0
9:54 pm 21:54 undefined 49 9.4 31 -0.6 50 50 undefined N/A 29.71 1006 N/A 0 0
10:54 pm 22:54 undefined 48 8.9 28 -2.2 46 46 undefined N/A 29.7 1006 N/A 0 0
11:54 pm 23:54 undefined 47 8.3 28 -2.2 48 48 undefined N/A 29.72 1006 N/A 0 0

Powered by AerisWeather